SAA563 EDDM-KJFK

Flight info

Callsign SAA563
Flight time N/A
Altitude 36000
Route GIVMI1N GIVMI Y101 INBED DCT REKDI DCT LOHRE DCT ADKUV DCT DENUT L610 KOPUL Q60 OKSAW DCT TEWXI DCT VATRY DCT DOGAL/M082F370 NATC ELSIR/N0471F380 N402C ALLEX DCT ENE PARCH4
Aircraft A346/H-SDE2E3FGHIJ3J4J5M1RWXY/LB1D1

Departure

Time 2026-05-07 10:49
Airport Munich Airport (EDDM)

Arrival

Time N/A
Airport John F. Kennedy International Airport (KJFK)
Time Latitude Longitude Altitude Speed Heading
2026-05-07 10:11 48.35410 11.79321 1493 ft 0 kts 272°
2026-05-07 10:33 48.35410 11.79323 1493 ft 2 kts 272°
2026-05-07 10:34 48.35409 11.79359 1489 ft 3 kts 270°
2026-05-07 10:34 48.35409 11.79394 1477 ft 3 kts 271°
2026-05-07 10:34 48.35408 11.79424 1477 ft 3 kts 280°
2026-05-07 10:34 48.35402 11.79451 1477 ft 3 kts 306°
2026-05-07 10:35 48.35390 11.79466 1477 ft 3 kts 339°
2026-05-07 10:35 48.35370 11.79472 1477 ft 3 kts 358°
2026-05-07 10:35 48.35347 11.79474 1477 ft 2 kts 353°
2026-05-07 10:35 48.35346 11.79474 1477 ft 0 kts 353°
2026-05-07 10:38 48.35357 11.79472 1489 ft 2 kts 353°
2026-05-07 10:38 48.35381 11.79471 1489 ft 4 kts
2026-05-07 10:39 48.35414 11.79494 1477 ft 6 kts 32°
2026-05-07 10:39 48.35457 11.79535 1482 ft 8 kts 32°
2026-05-07 10:39 48.35513 11.79573 1482 ft 9 kts
2026-05-07 10:39 48.35582 11.79567 1480 ft 11 kts 355°
2026-05-07 10:40 48.35661 11.79556 1487 ft 12 kts 354°
2026-05-07 10:40 48.35750 11.79542 1479 ft 13 kts 353°
2026-05-07 10:40 48.35845 11.79526 1491 ft 14 kts 353°
2026-05-07 10:40 48.35903 11.79517 1486 ft 4 kts 353°
2026-05-07 10:41 48.35921 11.79514 1478 ft 0 kts 353°
2026-05-07 10:41 48.36033 11.79495 1493 ft 1 kts 353°
2026-05-07 10:41 48.36058 11.79491 1493 ft 5 kts 353°
2026-05-07 10:41 48.36104 11.79483 1491 ft 7 kts 353°
2026-05-07 10:42 48.36162 11.79473 1491 ft 9 kts 353°
2026-05-07 10:42 48.36211 11.79506 1480 ft 9 kts 69°
2026-05-07 10:42 48.36224 11.79612 1483 ft 11 kts 83°
2026-05-07 10:42 48.36235 11.79736 1482 ft 12 kts 83°
2026-05-07 10:43 48.36246 11.79872 1485 ft 13 kts 83°
2026-05-07 10:43 48.36259 11.80023 1493 ft 16 kts 83°
2026-05-07 10:43 48.36273 11.80211 1490 ft 20 kts 85°
2026-05-07 10:43 48.36287 11.80443 1493 ft 24 kts 83°
2026-05-07 10:44 48.36307 11.80701 1488 ft 25 kts 83°
2026-05-07 10:44 48.36328 11.80965 1489 ft 25 kts 83°
2026-05-07 10:44 48.36349 11.81235 1483 ft 26 kts 83°
2026-05-07 10:44 48.36371 11.81508 1491 ft 26 kts 83°
2026-05-07 10:45 48.36393 11.81785 1482 ft 27 kts 83°
2026-05-07 10:45 48.36399 11.81928 1494 ft 6 kts 91°
2026-05-07 10:45 48.36394 11.82007 1480 ft 8 kts 96°
2026-05-07 10:45 48.36392 11.82101 1483 ft 10 kts 81°
2026-05-07 10:46 48.36444 11.82146 1483 ft 11 kts 355°
2026-05-07 10:46 48.36524 11.82132 1486 ft 12 kts 354°
2026-05-07 10:46 48.36611 11.82112 1487 ft 13 kts 350°
2026-05-07 10:46 48.36678 11.82086 1482 ft 6 kts 310°
2026-05-07 10:47 48.36679 11.82032 1485 ft 0 kts 266°
2026-05-07 10:47 48.36679 11.82024 1483 ft 3 kts 266°
2026-05-07 10:48 48.36663 11.81763 1484 ft 51 kts 264°
2026-05-07 10:48 48.36591 11.80871 1488 ft 105 kts 263°
2026-05-07 10:48 48.36464 11.79172 1481 ft 156 kts 263°
2026-05-07 10:48 48.36299 11.77007 1544 ft 191 kts 264°
2026-05-07 10:49 48.36141 11.74890 2152 ft 187 kts 264°
2026-05-07 10:49 48.35987 11.72858 2750 ft 188 kts 265°
2026-05-07 10:49 48.35835 11.70863 3325 ft 187 kts 264°
2026-05-07 10:49 48.35731 11.68836 3601 ft 199 kts 275°
2026-05-07 10:50 48.36137 11.66736 3868 ft 213 kts 296°
2026-05-07 10:50 48.36949 11.64691 4122 ft 229 kts 300°
2026-05-07 10:50 48.37937 11.62333 4434 ft 245 kts 300°
2026-05-07 10:50 48.38914 11.59988 4887 ft 253 kts 300°
2026-05-07 10:51 48.39884 11.57640 5553 ft 254 kts 300°
2026-05-07 10:51 48.40821 11.55352 6213 ft 256 kts 299°
2026-05-07 10:51 48.41812 11.52918 6853 ft 259 kts 299°
2026-05-07 10:51 48.42822 11.50427 7539 ft 261 kts 299°
2026-05-07 10:52 48.43792 11.48035 8193 ft 264 kts 300°
2026-05-07 10:52 48.44788 11.45587 8874 ft 266 kts 301°
2026-05-07 10:52 48.46208 11.43373 9509 ft 275 kts 326°
2026-05-07 10:52 48.48414 11.42223 10235 ft 283 kts 346°
2026-05-07 10:53 48.50552 11.41678 10653 ft 296 kts 347°
2026-05-07 10:53 48.52637 11.41087 10915 ft 309 kts 341°
2026-05-07 10:53 48.54820 11.39975 11223 ft 323 kts 336°
2026-05-07 10:53 48.56993 11.38728 11496 ft 338 kts 336°
2026-05-07 10:54 48.59333 11.37396 11765 ft 352 kts 336°
2026-05-07 10:54 48.62384 11.35702 12100 ft 369 kts 337°
2026-05-07 10:54 48.65004 11.34273 12459 ft 377 kts 337°
2026-05-07 10:54 48.67567 11.32886 13002 ft 378 kts 338°
2026-05-07 10:55 48.70185 11.31484 13626 ft 380 kts 338°
2026-05-07 10:55 48.71857 11.30585 13923 ft 383 kts 338°
2026-05-07 10:55 48.75319 11.28724 14633 ft 388 kts 337°
2026-05-07 10:55 48.77954 11.27307 15152 ft 391 kts 337°
2026-05-07 10:56 48.80872 11.25734 15762 ft 394 kts 338°
2026-05-07 10:56 48.83562 11.24283 16315 ft 397 kts 338°
2026-05-07 10:56 48.85335 11.23326 16653 ft 399 kts 338°
2026-05-07 10:56 48.87976 11.21898 17152 ft 402 kts 338°
2026-05-07 10:57 48.90873 11.20330 17758 ft 405 kts 338°
2026-05-07 10:57 48.93636 11.18833 18334 ft 408 kts 338°
2026-05-07 10:57 48.96486 11.17288 18826 ft 412 kts 338°
2026-05-07 10:57 49.00004 11.15377 19460 ft 415 kts 338°
2026-05-07 10:58 49.02937 11.13783 20022 ft 417 kts 338°
2026-05-07 10:58 49.05741 11.12257 20499 ft 419 kts 338°
2026-05-07 10:58 49.08943 11.10512 21064 ft 422 kts 338°
2026-05-07 10:58 49.12077 11.08802 21597 ft 425 kts 338°
2026-05-07 10:59 49.15175 11.07110 22136 ft 427 kts 339°
2026-05-07 10:59 49.18011 11.05559 22608 ft 429 kts 339°
2026-05-07 10:59 49.21109 11.03863 23105 ft 432 kts 339°
2026-05-07 10:59 49.24194 11.02173 23582 ft 435 kts 339°
2026-05-07 11:00 49.27138 11.00558 23973 ft 437 kts 339°
2026-05-07 11:00 49.30216 10.98866 24379 ft 440 kts 339°
2026-05-07 11:00 49.33547 10.97031 24838 ft 442 kts 339°
2026-05-07 11:00 49.36767 10.94893 25236 ft 443 kts 330°
2026-05-07 11:01 49.39990 10.91398 25713 ft 443 kts 317°
2026-05-07 11:01 49.42548 10.87201 26108 ft 445 kts 309°
2026-05-07 11:01 49.44782 10.82930 26511 ft 447 kts 308°
2026-05-07 11:01 49.46919 10.78778 26873 ft 450 kts 308°
2026-05-07 11:02 49.48887 10.74973 27222 ft 452 kts 308°
2026-05-07 11:02 49.50957 10.71000 27561 ft 454 kts 309°
2026-05-07 11:02 49.53246 10.66623 27955 ft 456 kts 309°
2026-05-07 11:02 49.55457 10.62401 28487 ft 454 kts 309°
2026-05-07 11:03 49.58045 10.57457 29182 ft 451 kts 309°
2026-05-07 11:03 49.60048 10.53624 29679 ft 450 kts 309°
2026-05-07 11:03 49.62093 10.49704 30148 ft 449 kts 309°
2026-05-07 11:03 49.64441 10.45192 30530 ft 449 kts 308°
2026-05-07 11:04 49.66825 10.40203 30863 ft 450 kts 305°
2026-05-07 11:04 49.69111 10.35069 31237 ft 450 kts 304°
2026-05-07 11:04 49.71271 10.30152 31579 ft 450 kts 304°
2026-05-07 11:04 49.73428 10.25236 31893 ft 452 kts 304°
2026-05-07 11:05 49.75535 10.20435 32255 ft 452 kts 304°
2026-05-07 11:05 49.77837 10.15186 32651 ft 453 kts 303°
2026-05-07 11:05 49.79996 10.10258 32996 ft 453 kts 303°
2026-05-07 11:05 49.81844 10.06033 33293 ft 454 kts 303°
2026-05-07 11:06 49.83638 10.01926 33587 ft 454 kts 303°
2026-05-07 11:06 49.85629 9.97361 33922 ft 454 kts 303°
2026-05-07 11:06 49.87582 9.92874 34208 ft 454 kts 303°
2026-05-07 11:06 49.89489 9.88487 34403 ft 455 kts 303°
2026-05-07 11:07 49.91400 9.84083 34601 ft 457 kts 303°
2026-05-07 11:07 49.93243 9.79829 34769 ft 458 kts 303°
2026-05-07 11:07 49.95161 9.75395 34953 ft 460 kts 303°
2026-05-07 11:07 49.97075 9.70964 35132 ft 461 kts 303°
2026-05-07 11:08 49.98957 9.66598 35314 ft 462 kts 303°
2026-05-07 11:08 50.00877 9.62138 35504 ft 463 kts 302°
2026-05-07 11:08 50.03188 9.56479 35699 ft 464 kts 299°
2026-05-07 11:08 50.05210 9.50667 35894 ft 465 kts 295°
2026-05-07 11:09 50.08421 9.38442 35984 ft 466 kts 287°
2026-05-07 11:09 50.10633 9.26264 35991 ft 466 kts 284°
2026-05-07 11:10 50.12682 9.14410 35989 ft 465 kts 284°
2026-05-07 11:10 50.14726 9.02607 35994 ft 465 kts 284°
2026-05-07 11:11 50.16791 8.90653 36004 ft 465 kts 284°
2026-05-07 11:11 50.18934 8.78172 36002 ft 465 kts 284°
2026-05-07 11:12 50.20957 8.66307 36008 ft 465 kts 284°
2026-05-07 11:12 50.23030 8.54070 36010 ft 464 kts 284°
2026-05-07 11:13 50.25062 8.41982 36019 ft 464 kts 284°
2026-05-07 11:13 50.27039 8.30145 36022 ft 463 kts 284°
2026-05-07 11:14 50.29106 8.17680 36023 ft 462 kts 284°
2026-05-07 11:14 50.30945 8.06508 36019 ft 462 kts 284°
2026-05-07 11:15 50.32709 7.95725 36021 ft 462 kts 284°
2026-05-07 11:15 50.34640 7.83841 36023 ft 462 kts 284°
2026-05-07 11:16 50.36486 7.72406 36020 ft 462 kts 283°
2026-05-07 11:16 50.38326 7.60928 36019 ft 462 kts 283°